User: anonymous   Login
Location: Mount Kobau Star Party
(49.1167°N, 119.7333°W)
Time: 16:00:01
(UTC-07:00)
Language:

TSX-5 - Orbit

View from above orbital plane
View from above orbital plane
View from above satellite
View from above satellite

Ground track
Ground track

The orbit data is extracted from the following two-line orbital elements,

1 26374U 00030A   16150.50975925  .00001539  00000-0  13890-3 0  9992
2 26374  68.9304 318.3480 0656111 349.5308   9.2657 14.03399213802243
Epoch (UTC): 29 May 2016 12:14:03
Eccentricity: 0.0656111
inclination: 68.9304°
perigee height: 406 km
apogee height: 1358 km
right ascension of ascending node: 318.3480°
argument of perigee: 349.5308°
revolutions per day: 14.03399213
mean anomaly at epoch: 9.2657°
orbit number at epoch: 80224

The dashed part of the orbit path shows where the satellite is in the earth's shadow,  

DLR